Location: El Jarillo
(10.3667°N, 67.1667°W)
Time: 15:10:10
(UTC+00:00)

Cosmos 2061 Rocket - Pass Details

Date: 08 September 2024
Orbit: 965 x 1012 km, 82.9° (Epoch: 10 October)

Event Time Altitude Azimuth Distance (km) Brightness Sun altitude
Rises 23:09:05 0° 178° (S) 3,696 6.9 -9.6°
Reaches altitude 10° 23:11:36 10° 176° (S) 2,754 6.3 -10.2°
Maximum altitude 23:17:53 71° 93° (E) 1,053 4.0 -11.7°
Drops below altitude 10° 23:24:15 10° 10° (N) 2,780 6.4 -13.3°
Sets 23:26:48 0° 8° (N) 3,733 7.1 -13.9°
